{"data":{"norad_id":64563,"epoch":"2026-05-24T21:32:13.005600Z","epoch_age_seconds":80538,"freshness":"FRESH","line1":"1 64563U 25135AM  26144.89737275  .00004925  00000+0  43483-3 0  9999","line2":"2 64563  97.7648 259.9475 0002315  19.1010 341.0298 14.96832962 50452","mean_motion":14.96832962,"eccentricity":0.0002315,"inclination_deg":97.7648,"raan_deg":259.9475,"arg_perigee_deg":19.101,"mean_anomaly_deg":341.0298,"bstar":0.00043483,"rev_number":5045,"period_min":96.203119289673,"perigee_km":575.07917318801,"apogee_km":578.29925772577,"semimajor_km":6954.8262154569,"source":"CELESTRAK","updated_at":"2026-05-25T13:38:04.618020Z"}}